Weather History for KSJS - May, 2014

Change the Weather History Date:

Wednesday, May 7, 2014

  Actual Average Record
Temperature  
Mean Temperature 72 °F -  
Max Temperature 86 °F - - ()
Min Temperature 58 °F - - ()
Cooling Degree Days 7    
Growing Degree Days 22 (Base 50)    
Moisture  
Dew Point 52 °F    
Average Humidity 52    
Maximum Humidity 85    
Minimum Humidity 27    
Precipitation  
Precipitation 0.00 in - - ()
Sea Level Pressure  
Sea Level Pressure 30.03 in    
Wind  
Wind Speed 3 mph (SW)    
Max Wind Speed 14 mph    
Max Gust Speed 21 mph    
Visibility 10 miles    
Events      
T = Trace of Precipitation, MM = Missing Value Source: NWS Daily Summary

Daily Weather History Graph

Daily Weather History Graph

Search for Another Location

Airport or City:

Trip Planner

Search our weather history database for the weather conditions in past years. The results will help you decide how hot, cold, wet, or windy it might be!

Date:

Astronomy

May. 07, 2014 Rise Set
Actual Time 6:28 AM EDT 8:26 PM EDT
Civil Twilight 5:59 AM EDT 8:55 PM EDT
Nautical Twilight 5:24 AM EDT 9:30 PM EDT
Astronomical Twilight 4:47 AM EDT 10:08 PM EDT
Moon 1:37 PM EDT (5/7) 2:18 AM EDT (5/7)
Length of Visible Light 14h 55m
Length of Day
13h 58m
First Quarter, 55% of the Moon is Illuminated
May 7
First Quarter
May 14
Full
May 21
Last Quarter
May 28
New
Jun 5
First Quarter

Hourly Weather History & Observations

Time (EDT) Temp. Heat Index Dew Point Humidity Pressure Visibility Wind Dir Wind Speed Gust Speed Precip Events Conditions
12:15 AM 64.6 °F - 51.6 °F 63% 29.97 in 10.0 mi Calm Calm - N/A   Clear
12:55 AM 63.5 °F - 51.8 °F 66% 29.98 in 10.0 mi Calm Calm - N/A   Clear
1:15 AM 63.5 °F - 52.5 °F 67% 29.98 in 10.0 mi Calm Calm - N/A   Clear
1:35 AM 61.9 °F - 52.2 °F 70% 29.97 in 10.0 mi Calm Calm - N/A   Clear
2:15 AM 61.5 °F - 53.8 °F 76% 29.96 in 10.0 mi Calm Calm - N/A   Clear
2:35 AM 63.1 °F - 52.2 °F 67% 29.97 in 10.0 mi Calm Calm - N/A   Clear
2:55 AM 60.6 °F - 52.7 °F 75% 29.97 in 10.0 mi Calm Calm - N/A   Clear
3:15 AM 59.2 °F - 52.7 °F 79% 29.97 in 10.0 mi Calm Calm - N/A   Clear
3:35 AM 61.0 °F - 52.2 °F 73% 29.98 in 10.0 mi Calm Calm - N/A   Clear
3:55 AM 60.6 °F - 53.1 °F 76% 29.98 in 10.0 mi Calm Calm - N/A   Clear
4:15 AM 61.0 °F - 53.6 °F 77% 29.98 in 10.0 mi SSW 3.5 mph - N/A   Clear
4:35 AM 61.2 °F - 53.6 °F 76% 29.98 in 10.0 mi Calm Calm - N/A   Clear
4:55 AM 59.9 °F - 53.8 °F 80% 29.98 in 10.0 mi Calm Calm - N/A   Clear
5:15 AM 60.8 °F - 54.1 °F 79% 29.98 in 10.0 mi SW 3.5 mph - N/A   Clear
5:35 AM 58.3 °F - 53.8 °F 85% 29.99 in 10.0 mi WSW 4.6 mph - N/A   Clear
5:55 AM 59.5 °F - 54.3 °F 83% 29.99 in 10.0 mi SSW 4.6 mph - N/A   Clear
6:15 AM 60.4 °F - 54.5 °F 81% 30.00 in 10.0 mi SSW 5.8 mph - N/A   Clear
6:35 AM 60.3 °F - 54.7 °F 82% 30.01 in 10.0 mi SSW 5.8 mph - N/A   Clear
6:55 AM 61.0 °F - 55.0 °F 81% 30.02 in 10.0 mi SSW 5.8 mph - N/A   Clear
7:15 AM 61.2 °F - 55.0 °F 80% 30.04 in 10.0 mi SSW 5.8 mph - N/A   Clear
7:35 AM 62.1 °F - 55.4 °F 79% 30.04 in 10.0 mi SSW 5.8 mph - N/A   Clear
7:55 AM 63.5 °F - 55.8 °F 76% 30.06 in 10.0 mi SSW 3.5 mph - N/A   Clear
8:15 AM 65.3 °F - 56.1 °F 72% 30.07 in 10.0 mi Calm Calm - N/A   Clear
8:35 AM 66.6 °F - 55.8 °F 68% 30.08 in 10.0 mi SSW 3.5 mph - N/A   Clear
8:55 AM 68.0 °F - 56.3 °F 66% 30.09 in 10.0 mi SW 3.5 mph - N/A   Clear
9:15 AM 69.4 °F - 56.3 °F 63% 30.10 in 10.0 mi SW 3.5 mph - N/A   Clear
9:35 AM 71.6 °F - 57.2 °F 60% 30.10 in 10.0 mi SW 4.6 mph - N/A   Clear
9:55 AM 72.5 °F - 56.7 °F 57% 30.10 in 10.0 mi SW 5.8 mph - N/A   Clear
10:15 AM 73.6 °F - 57.4 °F 57% 30.10 in 10.0 mi SW 4.6 mph - N/A   Clear
10:35 AM 74.7 °F - 57.2 °F 54% 30.10 in 10.0 mi SW 6.9 mph - N/A   Clear
10:55 AM 75.2 °F - 56.7 °F 52% 30.10 in 10.0 mi WSW 5.8 mph - N/A   Clear
11:15 AM 75.7 °F - 56.7 °F 51% 30.10 in 10.0 mi WSW 6.9 mph - N/A   Clear
11:35 AM 76.6 °F - 55.9 °F 49% 30.10 in 10.0 mi West 3.5 mph - N/A   Clear
11:55 AM 77.4 °F - 55.9 °F 47% 30.10 in 10.0 mi West 6.9 mph - N/A   Clear
12:15 PM 77.9 °F - 55.4 °F 46% 30.09 in 10.0 mi Calm Calm - N/A   Clear
12:35 PM 79.3 °F - 55.2 °F 43% 30.09 in 10.0 mi SW 9.2 mph - N/A   Clear
12:55 PM 80.4 °F 80.1 °F 53.6 °F 39% 30.08 in 10.0 mi South 9.2 mph 16.1 mph N/A   Clear
1:15 PM 80.8 °F 80.4 °F 53.4 °F 39% 30.07 in 10.0 mi WSW 5.8 mph - N/A   Clear
1:35 PM 81.3 °F 80.8 °F 54.3 °F 39% 30.06 in 10.0 mi SW 5.8 mph 16.1 mph N/A   Clear
1:55 PM 81.9 °F 81.0 °F 53.4 °F 37% 30.06 in 10.0 mi SW 3.5 mph - N/A   Clear
2:15 PM 82.6 °F - 51.8 °F 34% 30.06 in 10.0 mi WSW 6.9 mph 17.3 mph N/A   Clear
2:35 PM 83.3 °F - 51.3 °F 33% 30.05 in 10.0 mi SSW 13.8 mph 20.7 mph N/A   Clear
2:55 PM 83.8 °F - 51.8 °F 33% 30.04 in 10.0 mi SW 5.8 mph - N/A   Clear
3:15 PM 83.8 °F - 51.3 °F 32% 30.04 in 10.0 mi SSW 5.8 mph - N/A   Clear
3:35 PM 84.2 °F - 51.8 °F 33% 30.03 in 10.0 mi SW 10.4 mph - N/A   Clear
3:55 PM 85.5 °F - 50.4 °F 30% 30.03 in 10.0 mi South 9.2 mph - N/A   Clear
4:15 PM 85.3 °F - 50.2 °F 30% 30.02 in 10.0 mi WSW 3.5 mph - N/A   Clear
4:35 PM 85.8 °F - 48.0 °F 27% 30.02 in 10.0 mi West 6.9 mph - N/A   Clear
4:55 PM 86.9 °F - 48.9 °F 27% 30.01 in 10.0 mi WSW 5.8 mph - N/A   Clear
5:15 PM 86.5 °F - 50.4 °F 29% 30.01 in 10.0 mi West 3.5 mph - N/A   Clear
5:35 PM 86.4 °F - 50.0 °F 28% 30.01 in 10.0 mi WNW 5.8 mph - N/A   Clear
5:55 PM 86.2 °F - 49.5 °F 28% 30.01 in 10.0 mi West 8.1 mph - N/A   Clear
6:15 PM 86.0 °F - 48.7 °F 27% 30.01 in 10.0 mi West 5.8 mph - N/A   Clear
6:35 PM 85.3 °F - 49.1 °F 28% 30.01 in 10.0 mi West 4.6 mph - N/A   Clear
6:55 PM 85.1 °F - 49.5 °F 29% 30.01 in 10.0 mi West 4.6 mph - N/A   Clear
7:15 PM 84.2 °F - 49.5 °F 30% 30.01 in 10.0 mi West 4.6 mph - N/A   Clear
7:35 PM 82.9 °F - 49.8 °F 32% 30.02 in 10.0 mi West 4.6 mph - N/A   Clear
7:55 PM 81.5 °F - 50.4 °F 34% 30.02 in 10.0 mi Calm Calm - N/A   Clear
8:15 PM 81.0 °F - 49.5 °F 33% 30.02 in 10.0 mi SW 3.5 mph - N/A   Clear
8:35 PM 79.5 °F - 49.5 °F 35% 30.02 in 10.0 mi Calm Calm - N/A   Clear
8:55 PM 78.1 °F - 49.6 °F 37% 30.02 in 10.0 mi Calm Calm - N/A   Clear
9:15 PM 78.4 °F - 49.6 °F 36% 30.02 in 10.0 mi South 3.5 mph - N/A   Clear
9:35 PM 77.5 °F - 49.8 °F 38% 30.02 in 10.0 mi South 4.6 mph - N/A   Clear
9:55 PM 76.3 °F - 50.0 °F 40% 30.02 in 10.0 mi South 3.5 mph - N/A   Clear
10:15 PM 76.1 °F - 49.1 °F 39% 30.03 in 10.0 mi SSW 4.6 mph - N/A   Clear
10:35 PM 74.3 °F - 49.1 °F 41% 30.04 in 10.0 mi Calm Calm - N/A   Clear
10:55 PM 74.8 °F - 48.2 °F 39% 30.04 in 10.0 mi SSW 5.8 mph - N/A   Clear
11:15 PM 73.9 °F - 47.7 °F 39% 30.04 in 10.0 mi SSW 5.8 mph - N/A   Clear
11:35 PM 73.2 °F - 47.5 °F 40% 30.04 in 10.0 mi SSW 5.8 mph - N/A   Clear
11:55 PM 73.4 °F - 47.3 °F 39% 30.04 in 10.0 mi SSW 5.8 mph - N/A   Clear